Regional Weather Roundup
Issued by NWS

Home | Current Version | Previous Version | Text Only | Print | Product List | Glossary On
Versions: 1 2 3 4 5 6 7 8 9 10 11 12 13 14 15 16 17 18 19 20 21 22 23 24 25 26 27 28 29 30 31 32 33 34 35 36 37 38 39 40 41 42 43 44 45 46 47 48 49 50
616
ASUS43 KLSX 200157
RWRMO

WEATHER SUMMARY FOR MISSOURI
NATIONAL WEATHER SERVICE SPRINGFIELD MO
800 PM CST FRI JAN 19 2018

NOTE: "FAIR" INDICATES FEW OR NO CLOUDS BELOW 12,000 FEET WITH NO
       SIGNIFICANT WEATHER AND/OR OBSTRUCTIONS TO VISIBILITY.
       CURRENT SKY AND/OR WEATHER CONDITIONS ARE NOT AVAILABLE FOR
       CHILLICOTHE AND FARMINGTON.

MOZ001>031-035>038-043-044-053-054-200300-
...NORTHERN AND WESTERN MISSOURI...

CITY           SKY/WX    TMP DP  RH WIND       PRES   REMARKS
KANSAS CTY INT CLOUDY    45  26  47 S24G31    29.78F
LEE`S SUMMIT   CLOUDY    44  29  55 S20G28    29.82F
ST JOSEPH      CLOUDY    41  30  65 S9        29.79R
CHILLICOTHE      N/A     42  28  57 S10       29.81S

$$
MOZ066>068-077>081-088>096-101>105-200300-
...SOUTHWEST MISSOURI...

CITY           SKY/WX    TMP DP  RH WIND       PRES   REMARKS
SPRINGFIELD    CLOUDY    42  29  59 S8        29.93R
JOPLIN         CLOUDY    46  31  55 S16       29.91S
BRANSON        PTCLDY    43  30  61 SE8       29.97S

$$
MOZ032>034-039>042-045>050-055>058-069>072-200300-
...CENTRAL MISSOURI...

CITY           SKY/WX    TMP DP  RH WIND       PRES   REMARKS
COLUMBIA       NOT AVBL
JEFFERSON CITY MOCLDY    47  25  42 SE8       29.90F
ROLLA          CLOUDY    43  26  51 S17       29.92F
SEDALIA        CLOUDY    48  29  47 S17G24    29.87S
WARRENSBURG    MOCLDY    41  28  60 S10       29.85F

$$
MOZ051-052-059>065-200300-
...EAST CENTRAL MISSOURI...

CITY           SKY/WX    TMP DP  RH WIND       PRES   REMARKS
ST LOUIS INTL  CLOUDY    48  24  39 S13G22    29.92S

$$
MOZ072>076-082>087-097>100-106>115-200300-
...SOUTH CENTRAL AND SOUTHEAST MISSOURI...

CITY           SKY/WX    TMP DP  RH WIND       PRES   REMARKS
CAPE GIRARDEAU FAIR      35  23  61 S17G26    30.08S WCI  25
POPLAR BLUFF   FAIR      33  26  75 S7        30.08F WCI  27
WEST PLAINS    CLOUDY    41  28  60 S10       30.00S

$$



USA.gov is the U.S. government's official web portal to all federal, state and local government web resources and services.